RH
7 10 15 18 18 17 16 15 13 12 15 18 18 19 19 21 22 21 20 20 22 30 37 37 41 44 44 44 40 40 43 43 46 49 53 58 59 60 58 55 61 63 60 59 58 60 62 61 62 64 67 69 70 72 71 72 69 58 54 64 68 66 65 69 66 58 54 56 62 66 68 69 68 72 78 81 84 87 90 89 89 92 93 90 86 81
9 13 17 18 17 15 14 14 13 11 12 16 18 19 20 20 20 18 19 19 20 28 36 37 41 44 42 42 40 38 40 41 43 46 51 56 57 59 58 55 59 63 61 62 63 63 62 60 62 64 66 68 70 70 69 69 64 54 54 61 64 65 69 71 64 57 57 61 66 67 69 71 70 73 77 75 75 78 78 78 83 88 87 85 83 81
14 14 14 15 15 14 14 14 14 12 11 14 16 18 21 21 19 19 18 19 19 26 36 39 41 43 41 40 38 37 39 39 40 43 48 52 56 58 57 56 60 62 63 64 65 65 62 61 63 64 65 66 68 67 67 67 62 56 56 60 66 68 67 67 64 64 66 66 67 69 71 71 68 70 71 63 62 66 69 74 77 76 80 86 86 82
20 16 12 13 14 14 14 14 14 13 12 11 13 16 20 20 20 21 21 19 19 24 34 39 41 43 41 40 39 37 36 38 40 41 45 49 52 54 52 55 60 62 63 66 66 65 64 63 63 65 66 67 68 68 68 67 62 59 58 62 69 66 59 60 64 68 68 67 71 74 74 69 66 69 67 61 61 64 67 75 76 69 74 86 84 77
19 16 12 12 13 14 14 14 13 14 14 12 12 13 17 18 18 21 21 18 22 28 31 38 46 48 45 44 43 39 35 37 40 42 46 49 50 51 52 54 57 58 61 65 67 65 64 65 64 66 67 69 70 69 70 68 60 57 60 66 66 57 54 59 66 69 67 68 74 76 74 69 67 69 66 62 62 60 59 66 71 66 69 80 81 78
13 12 11 12 13 13 13 15 13 13 14 12 12 12 13 14 15 19 18 19 33 41 34 36 53 58 51 46 43 40 39 40 40 42 47 51 52 54 57 59 58 57 59 61 63 63 64 65 65 67 70 70 68 67 67 64 56 54 60 64 58 52 54 56 60 66 67 69 75 76 73 69 66 67 66 65 63 62 61 63 68 70 72 78 81 81
9 8 11 12 13 12 14 14 12 12 13 13 14 13 10 11 15 19 18 23 37 45 34 30 49 62 53 46 43 40 41 42 41 43 47 50 54 56 58 60 59 59 60 60 61 63 64 65 66 69 71 66 61 61 61 56 53 55 55 53 52 51 48 43 47 59 67 72 73 71 70 66 64 66 66 67 68 68 67 64 66 70 74 76 74 72
7 8 10 12 13 12 14 13 11 11 11 14 15 12 11 11 15 18 18 22 29 35 35 30 43 60 54 44 42 42 43 44 44 45 46 49 53 56 58 59 59 58 59 61 63 65 65 66 66 67 68 61 58 59 54 48 51 52 46 45 50 45 39 39 47 55 62 66 65 64 66 65 63 64 65 68 69 68 66 64 64 62 63 65 62 58
7 9 10 11 13 13 13 12 11 10 10 12 10 10 11 10 14 18 18 22 26 34 43 38 39 57 67 60 49 45 45 45 46 46 46 49 51 54 58 59 59 57 57 59 61 63 65 66 64 64 63 60 61 57 47 45 48 43 38 43 46 39 37 46 52 52 51 57 63 65 66 65 63 61 61 61 59 56 56 56 55 48 45 48 49 50
7 7 9 10 11 12 11 10 10 9 9 9 7 9 10 11 14 16 19 23 25 38 47 39 35 50 70 71 56 52 51 43 43 45 44 48 49 51 56 59 60 60 60 59 57 57 61 63 63 62 63 63 62 53 43 45 46 37 37 44 42 37 43 51 52 50 50 55 64 67 66 64 58 49 45 42 39 36 33 33 33 32 33 36 39 44
7 6 8 9 10 10 9 10 9 9 9 8 9 8 8 19 26 27 37 37 27 38 45 36 31 36 53 65 57 52 49 39 38 43 44 46 49 50 52 57 61 63 64 62 59 57 58 61 62 63 65 65 62 54 46 48 45 35 38 46 43 42 49 52 50 52 57 63 68 65 58 50 40 32 28 24 21 18 16 18 21 24 29 32 35 38
7 7 8 8 8 8 8 9 8 8 9 7 10 10 10 26 32 28 39 35 24 35 40 31 29 30 40 54 53 44 39 35 36 40 43 45 48 49 49 52 59 63 64 63 63 64 65 68 68 67 68 65 63 60 52 47 42 36 39 46 47 47 50 52 53 58 67 72 66 50 38 30 24 25 25 20 16 15 17 23 27 30 34 35 37 35
8 7 8 7 7 8 8 11 9 9 10 7 13 17 16 25 25 21 31 32 29 38 35 25 27 33 35 38 40 40 37 35 34 34 39 42 44 47 47 48 55 61 63 63 66 70 71 72 70 68 69 65 65 65 55 45 42 38 40 44 46 48 48 49 55 62 71 70 50 29 22 22 23 26 27 23 19 21 31 41 45 48 49 46 46 45
10 8 8 7 8 8 8 11 11 11 11 9 15 19 22 28 23 23 35 34 30 34 28 20 23 32 33 28 33 37 34 33 32 32 35 38 42 44 44 45 51 58 61 62 67 71 73 72 68 67 65 62 62 61 51 43 41 39 41 44 43 44 44 45 51 59 66 57 33 18 19 19 21 24 26 26 24 26 38 49 52 54 54 52 54 61
13 14 12 8 8 8 8 9 9 11 11 10 15 17 24 34 30 28 35 30 25 27 22 18 24 30 26 27 35 33 29 31 31 31 32 35 39 41 42 43 49 58 60 62 67 69 69 67 65 64 62 59 59 55 46 38 38 38 39 42 40 39 39 39 42 51 54 41 21 15 18 17 17 20 21 23 22 24 34 42 46 49 49 45 46 52
11 15 14 9 8 7 7 9 7 9 11 9 13 16 19 28 28 27 33 36 32 28 25 26 34 39 31 35 44 37 33 36 33 32 33 35 39 39 41 42 47 57 61 62 66 68 67 64 61 61 59 58 59 54 44 35 34 36 36 39 38 35 33 32 33 37 37 26 15 15 17 16 17 17 15 16 17 21 29 35 40 43 37 29 25 27
12 15 13 8 9 7 6 9 7 8 14 13 12 15 16 17 18 22 29 34 29 26 33 33 30 33 31 37 46 43 41 43 38 37 36 35 39 39 40 41 45 54 59 61 63 64 65 63 61 61 59 58 60 55 44 33 29 32 35 38 39 35 31 28 27 28 25 17 11 14 17 16 16 14 12 13 16 21 27 32 36 35 27 20 19 21
14 16 14 8 9 8 5 7 7 6 12 14 10 12 15 13 17 30 33 30 28 29 37 34 24 25 31 39 48 46 45 47 41 39 39 38 40 41 41 41 42 48 54 58 60 60 62 62 62 63 60 56 57 52 42 32 28 29 32 34 36 36 32 27 25 27 22 12 8 13 17 16 15 13 13 14 19 25 29 33 34 33 30 26 24 27
12 15 16 10 8 9 6 6 9 7 7 10 9 10 15 14 18 29 30 27 32 32 33 33 30 31 34 41 49 48 47 49 45 42 41 41 42 42 42 43 42 46 52 59 64 65 65 64 64 64 61 57 57 53 45 39 37 36 35 34 34 32 30 27 26 29 25 11 6 12 15 17 16 15 14 14 19 24 27 28 31 36 40 37 34 36
11 13 18 15 8 7 8 8 9 10 8 8 10 9 13 17 17 20 24 28 33 34 39 39 35 42 47 44 44 46 46 47 45 44 43 41 42 40 41 44 45 46 51 56 61 63 63 62 61 60 58 56 56 55 51 49 48 46 43 40 39 36 34 31 30 35 31 13 5 12 16 19 21 19 18 17 19 22 23 24 28 34 40 41 44 49
11 11 18 22 13 7 11 11 9 11 10 9 12 12 12 15 15 16 23 28 27 36 48 39 32 52 62 48 40 42 42 42 43 43 42 41 40 39 39 42 44 46 49 51 53 55 58 58 55 55 57 57 58 58 57 56 53 51 49 46 45 42 38 33 31 38 37 15 5 14 19 21 24 24 22 21 21 22 23 23 25 31 38 42 49 55
12 14 21 23 14 10 12 10 8 9 9 11 13 13 13 15 16 16 21 27 25 32 44 35 31 52 57 42 39 40 37 38 39 39 41 40 38 38 38 39 43 46 45 45 43 43 47 49 49 55 62 64 65 64 62 60 56 54 52 49 48 46 40 34 32 39 41 21 9 17 21 21 25 27 25 23 21 22 23 23 25 31 36 42 53 60
13 16 20 19 13 13 11 7 8 8 8 11 10 10 13 17 19 18 24 32 24 22 35 33 31 47 53 40 36 38 35 32 33 35 38 37 35 37 38 39 41 41 39 40 40 39 42 44 48 57 66 69 68 65 62 61 59 57 54 52 52 49 43 37 35 41 45 29 15 18 24 27 30 29 25 22 21 23 24 23 26 31 34 42 55 64
14 14 17 21 17 13 11 8 8 9 8 10 11 10 12 14 16 22 36 40 26 20 30 27 25 44 57 46 34 32 31 27 28 32 33 33 33 34 36 38 39 39 39 40 38 39 42 46 53 60 65 68 68 67 65 63 61 60 58 56 54 50 45 40 40 46 49 36 22 24 33 38 37 33 26 20 20 25 27 26 29 35 37 43 53 58
12 14 17 23 21 15 15 13 10 11 11 11 14 11 9 13 12 16 29 30 23 28 31 24 29 46 52 42 33 30 28 26 26 27 28 29 30 31 34 35 36 37 40 40 38 41 46 50 55 59 62 66 67 67 65 63 62 61 58 55 53 51 47 43 45 52 52 41 29 33 45 42 34 34 28 20 22 28 29 28 33 41 45 48 53 54
15 23 18 21 28 24 22 23 22 20 14 12 14 9 9 13 9 12 23 23 26 37 33 29 40 46 41 35 31 29 28 27 26 25 27 28 26 29 34 36 37 38 38 37 37 41 45 47 51 56 61 66 67 67 65 63 63 59 54 53 51 49 47 45 50 54 51 44 36 44 54 40 27 32 27 17 22 28 28 27 32 41 48 52 56 59
16 26 19 21 29 27 27 30 28 23 14 10 12 10 10 11 8 14 24 27 35 39 35 43 48 36 32 33 29 29 29 25 27 31 32 31 30 32 36 38 39 38 35 33 34 40 46 50 53 57 62 64 65 66 64 60 59 56 53 52 49 47 46 46 52 53 51 48 40 44 55 43 30 34 26 15 21 24 21 23 29 38 50 60 67 65
15 20 19 21 23 20 25 29 23 16 11 10 11 10 10 11 10 14 17 24 38 36 31 48 51 31 28 33 28 27 29 25 31 37 35 33 34 34 36 39 40 38 39 40 40 44 48 50 54 57 59 61 62 64 62 56 54 50 48 47 46 47 47 47 51 52 51 49 41 43 59 59 48 42 29 20 21 18 16 20 24 35 53 65 65 55
16 16 18 19 18 16 18 22 20 14 10 10 11 10 10 11 12 13 14 20 31 28 21 36 46 33 26 29 25 23 25 25 30 35 32 30 32 33 36 41 41 38 41 45 44 44 43 45 51 55 58 60 60 61 59 55 53 49 46 46 45 44 44 45 50 51 50 49 42 43 54 56 48 42 36 32 26 18 17 19 22 37 54 57 50 42
14 18 20 14 14 17 16 17 18 13 10 11 10 10 9 10 12 11 12 18 23 22 20 30 42 37 25 22 22 21 21 24 26 30 30 29 31 34 36 41 43 39 37 38 38 38 37 38 40 45 53 60 61 59 56 53 51 48 46 46 45 42 40 43 48 49 48 47 42 41 44 44 43 43 44 42 30 19 19 21 24 36 44 41 37 38
12 22 25 14 14 19 15 16 16 12 13 12 9 11 10 9 12 10 9 16 23 23 24 31 41 40 29 22 21 20 22 25 28 29 30 30 31 31 31 34 40 41 39 38 37 34 32 33 35 39 48 55 56 55 53 48 45 44 45 46 45 40 36 39 46 48 48 47 44 45 46 44 47 51 48 40 28 20 22 24 27 32 34 33 35 38
14 22 24 16 18 21 16 14 14 11 12 11 10 12 12 12 14 14 14 19 24 27 34 39 38 34 31 29 29 30 29 29 30 30 29 29 27 24 24 27 34 41 42 39 37 35 32 32 36 40 45 50 54 54 50 46 44 45 47 46 43 38 35 40 48 52 53 51 50 57 57 47 51 59 51 37 28 23 23 27 30 33 35 36 38 40
17 19 21 20 21 23 18 14 17 17 14 17 20 15 13 18 19 18 21 24 26 31 38 39 31 27 31 34 35 35 32 30 30 27 25 26 24 21 22 25 29 34 34 30 30 31 31 31 33 34 38 44 49 49 46 46 47 45 43 43 42 39 38 43 50 52 53 51 53 65 65 52 55 62 50 37 34 28 26 30 33 35 37 39 39 41
21 19 24 28 25 24 22 16 20 25 21 25 31 20 13 19 21 20 23 27 30 34 36 35 32 30 33 33 32 33 31 29 28 24 20 20 20 21 24 26 27 28 26 23 22 24 24 26 28 30 34 40 42 41 41 44 44 43 42 44 44 41 40 47 52 53 56 59 61 65 59 49 56 60 47 40 41 37 33 34 34 34 38 41 41 41
26 21 25 34 33 32 31 20 17 26 32 37 36 24 17 20 22 23 24 25 31 35 36 39 39 37 36 32 29 30 29 26 24 23 20 18 17 20 24 24 24 24 23 21 20 20 20 20 22 25 30 37 41 42 44 47 47 47 49 50 48 47 52 58 62 65 71 71 68 63 56 52 59 61 50 46 48 46 42 38 34 34 38 40 40 40
32 32 33 36 35 33 32 26 23 31 40 41 31 22 23 25 25 27 26 26 33 36 32 35 37 36 37 34 29 27 25 25 24 23 20 18 17 17 18 19 20 20 21 20 19 20 21 21 21 23 25 30 35 40 44 47 48 49 52 56 59 64 69 70 74 81 82 73 64 59 57 57 60 60 56 54 52 52 50 43 34 31 34 36 38 39
31 39 41 38 37 40 41 39 36 32 31 34 32 26 25 24 24 30 30 29 36 39 34 33 35 36 35 34 30 25 22 25 28 25 20 18 17 15 16 19 21 20 21 22 21 20 23 25 24 25 27 29 32 35 39 44 53 59 62 66 68 70 72 72 75 80 79 74 68 63 62 63 61 60 63 61 54 54 53 43 32 29 33 36 38 42
25 31 37 37 37 46 53 48 37 28 28 39 43 33 24 21 25 36 42 38 36 39 38 37 36 34 33 32 29 23 21 28 34 29 22 18 17 18 21 24 23 22 22 22 21 21 24 29 29 29 32 34 35 37 39 49 63 71 70 68 65 66 71 74 73 72 74 76 71 64 65 62 52 54 66 64 54 52 50 41 33 30 33 38 43 49
25 31 37 39 38 45 57 54 41 36 40 46 45 34 25 24 25 33 44 46 41 40 39 37 35 35 34 32 29 25 26 35 41 34 24 20 20 22 26 26 22 22 22 22 23 24 24 26 26 26 29 32 36 39 44 54 67 71 67 64 64 67 74 77 73 70 72 72 65 63 67 53 35 46 67 65 52 48 45 40 34 32 36 44 51 58
34 40 41 43 46 52 58 53 42 39 43 44 43 38 30 24 21 23 35 46 46 42 39 37 38 38 32 27 28 31 34 39 40 33 26 25 24 23 26 25 21 23 26 25 26 27 25 23 22 20 21 26 33 40 47 57 67 69 65 62 62 66 68 68 66 67 69 67 62 66 67 49 33 45 61 57 47 42 41 39 36 35 40 47 55 61
49 51 49 46 46 45 46 43 37 40 45 43 42 37 27 25 36 42 44 45 44 41 39 37 39 39 31 27 31 36 36 34 33 30 29 30 28 25 24 24 23 26 28 27 26 25 22 22 21 20 20 21 24 32 40 50 60 65 63 60 60 61 59 56 57 60 63 64 63 64 60 45 36 43 49 46 40 39 41 42 39 40 47 54 61 67
55 56 58 54 46 44 49 45 37 40 46 41 37 36 30 36 52 56 47 41 41 43 41 36 35 35 32 30 32 32 30 28 26 26 26 26 27 26 25 24 24 24 24 25 25 22 21 22 23 23 22 20 20 24 31 39 49 57 61 60 58 57 54 54 57 58 59 60 58 57 55 47 41 42 42 40 37 38 43 45 45 50 60 66 68 68
60 57 56 56 58 65 65 51 37 41 46 40 40 47 49 50 53 49 43 42 43 42 40 36 35 33 31 30 31 28 25 24 23 22 22 21 21 22 21 21 21 20 20 24 27 26 25 24 24 25 25 25 27 30 32 35 42 51 56 56 55 55 55 54 55 57 60 59 56 55 56 51 43 39 37 36 37 42 49 52 55 63 68 66 65 65
65 63 58 61 71 79 72 56 48 51 49 42 43 51 53 50 45 41 42 44 42 41 41 39 38 36 33 33 33 30 28 26 23 22 23 23 23 22 22 22 21 19 19 22 26 29 29 27 25 28 31 32 33 35 36 38 42 47 50 50 50 53 54 54 57 61 65 67 67 64 57 47 39 37 37 40 46 52 57 59 61 63 62 60 60 60
62 61 60 63 69 72 68 62 59 52 42 38 42 44 43 41 38 35 38 40 40 41 41 39 39 37 33 30 31 31 33 33 30 28 28 27 26 25 25 24 23 23 22 22 26 32 35 33 29 30 33 34 33 36 42 47 50 53 54 52 51 52 52 54 58 62 64 70 74 70 59 50 46 44 43 46 52 56 57 58 58 57 56 56 57 58
59 56 59 62 61 57 54 54 55 50 41 38 39 37 35 36 35 33 33 35 35 35 34 35 37 36 33 29 28 30 32 32 32 32 32 32 30 28 27 26 25 25 25 24 27 33 42 46 40 32 33 37 42 50 58 61 63 66 66 63 61 61 57 55 59 64 66 70 72 65 55 48 43 41 45 52 57 56 55 55 54 53 54 55 55 57
61 56 65 72 68 61 59 60 59 52 45 41 37 35 34 34 33 32 33 34 34 33 32 32 32 32 33 32 31 33 34 31 30 30 31 32 32 30 29 29 28 27 26 25 26 29 36 45 46 41 42 48 52 58 64 66 66 65 63 61 63 68 67 63 62 61 57 55 54 49 40 36 33 33 41 53 58 56 54 54 54 54 55 55 54 54
54 47 62 76 76 70 69 70 61 46 39 41 39 36 35 34 33 32 31 31 32 31 31 29 28 30 34 33 31 34 34 32 32 34 33 31 31 31 31 30 29 28 26 25 25 25 26 34 44 48 49 49 50 55 63 66 64 62 60 59 61 66 67 62 54 47 41 38 40 37 33 33 33 31 38 51 58 56 55 57 58 58 57 55 54 54
48 47 60 75 83 80 72 65 57 45 39 39 38 37 36 35 33 33 32 31 31 31 30 30 29 30 33 35 35 34 32 30 31 34 33 31 29 29 31 31 30 30 27 25 26 27 26 32 44 50 51 49 50 57 63 62 58 57 56 55 55 57 60 57 52 49 46 41 39 37 33 31 29 30 39 54 60 58 58 60 59 58 57 55 56 58
46 57 64 67 77 82 73 59 52 50 47 42 39 39 37 35 33 33 32 31 31 31 32 33 33 32 33 36 37 36 34 32 30 29 31 33 32 31 31 31 31 31 30 29 30 30 33 41 48 51 55 59 60 60 60 58 57 57 55 53 53 53 55 55 54 53 50 43 39 38 33 26 25 33 46 56 59 59 60 60 57 57 58 59 60 59
48 62 67 67 71 76 69 54 44 45 46 41 37 36 34 33 33 32 32 31 30 29 30 31 32 33 33 34 34 33 33 33 30 27 29 34 38 36 33 33 33 32 32 32 31 32 42 54 57 54 59 65 64 60 59 60 60 59 59 61 60 55 53 56 54 50 48 44 39 36 31 26 31 44 54 59 61 61 61 59 57 58 60 60 59 56
Wind_Speed
8 4 4 5 6 7 7 7 9 8 7 8 8 8 9 10 7 9 11 13 16 11 9 13 14 16 18 17 19 28 30 26 26 25 26 28 30 32 31 32 32 31 31 31 30 31 30 26 24 24 24 23 22 21 21 20 18 17 18 18 16 13 12 12 11 11 10 9 9 9 9 8 7 7 9 9 10 12 12 10 9 9 9 8 7 7
7 6 6 7 8 9 10 8 6 5 6 7 6 6 8 9 8 10 12 13 13 9 7 11 14 15 17 17 19 26 24 21 27 27 27 30 30 31 31 32 33 31 30 29 30 31 29 27 25 25 25 24 24 22 21 20 18 18 18 17 16 13 13 14 12 11 9 7 6 5 6 6 6 6 6 5 4 5 4 4 4 5 5 6 7 8
4 6 9 9 8 8 9 7 5 5 6 7 5 3 6 6 5 6 9 13 11 6 6 11 13 12 15 16 17 22 22 23 33 34 33 35 32 31 32 33 33 32 31 30 31 32 30 28 27 27 26 25 24 22 21 20 19 19 19 17 16 15 15 15 14 12 9 6 5 4 5 6 6 6 6 6 6 7 6 6 6 6 6 7 8 9
4 7 9 9 7 7 8 9 6 5 4 5 6 4 5 3 4 4 7 13 8 5 10 12 8 7 10 11 12 22 27 26 32 37 37 40 38 38 38 37 36 34 34 33 34 34 31 30 29 28 28 26 25 24 22 22 21 21 21 19 19 18 16 15 13 11 8 7 6 6 8 8 7 8 7 7 8 9 8 8 9 9 8 9 10 10
5 7 9 9 8 8 9 10 8 5 4 5 7 7 4 4 8 7 6 11 4 3 11 10 4 3 7 9 9 14 20 20 26 30 31 36 40 40 40 40 39 38 37 38 38 37 34 33 31 30 29 27 27 26 24 24 23 22 23 22 22 20 17 15 13 12 11 11 10 10 11 11 11 11 10 10 10 9 8 9 10 10 10 10 10 8
6 9 10 10 10 10 9 10 9 6 5 5 7 9 8 8 10 7 8 10 5 2 10 11 6 4 5 8 10 9 10 13 19 22 24 29 33 34 37 39 40 39 39 40 40 39 37 34 32 31 30 29 28 27 26 25 24 23 24 24 22 20 18 15 14 15 15 13 13 14 14 13 12 12 11 10 10 9 7 7 7 6 7 8 7 7
5 9 9 10 12 12 10 9 10 8 5 6 6 10 11 10 10 11 13 11 5 4 11 11 7 3 4 8 11 8 8 12 15 16 21 28 30 32 37 39 40 41 41 42 41 40 38 35 33 33 32 31 30 28 27 26 26 24 24 24 23 20 18 16 16 17 17 16 15 15 15 14 13 12 12 11 10 9 8 7 6 5 5 6 7 8
6 10 9 9 11 11 10 8 9 7 5 6 7 8 9 9 11 15 15 11 5 5 8 7 3 4 5 9 9 8 9 11 13 13 18 26 31 33 37 39 42 44 43 43 42 41 40 37 35 35 34 33 31 29 29 28 27 26 24 24 23 21 20 18 18 17 17 17 16 15 15 15 14 13 13 12 12 12 11 11 11 10 10 11 11 11
6 10 9 10 10 9 9 10 9 7 5 9 9 7 8 8 10 15 15 10 5 6 7 7 2 5 4 5 4 7 9 11 14 16 17 24 31 34 36 40 43 46 46 45 44 43 41 39 37 36 35 34 31 30 30 29 28 26 25 25 24 23 22 20 19 19 17 16 16 16 16 15 15 15 15 15 15 15 16 16 17 16 15 14 13 13
6 11 13 11 9 8 9 10 9 8 7 10 7 6 5 4 6 11 11 7 6 6 9 11 6 4 3 4 5 6 8 12 14 15 17 24 33 36 37 41 44 45 47 46 44 43 42 40 38 37 35 34 31 30 30 29 28 27 26 26 25 24 23 22 21 20 17 16 16 16 16 16 16 16 16 17 16 16 16 16 15 14 13 11 10 11
8 14 15 10 8 11 11 11 9 10 10 7 4 5 3 3 4 3 2 4 6 4 8 12 11 6 3 5 6 8 12 17 15 12 14 22 31 36 38 41 43 44 45 46 45 44 42 41 39 37 37 35 32 31 30 29 28 28 28 27 26 25 24 23 22 20 19 18 17 17 17 17 17 16 15 15 14 14 13 12 12 11 10 9 8 9
8 12 10 8 15 15 11 10 11 10 10 6 1 4 3 4 4 3 5 3 4 4 6 11 13 7 4 5 7 13 18 19 17 16 17 21 29 37 38 40 42 44 44 45 46 44 43 43 41 40 39 36 34 32 31 31 30 30 30 28 27 26 25 24 23 22 21 20 19 17 16 15 15 15 14 13 12 12 11 11 10 10 9 8 8 9
9 9 6 9 18 17 10 8 9 7 6 6 2 5 3 3 2 1 2 1 3 5 5 10 12 8 6 7 10 17 20 16 16 20 24 27 32 37 38 39 41 44 46 46 46 45 44 44 44 43 41 38 36 35 34 34 32 32 32 30 29 28 26 25 24 24 23 22 19 16 14 14 14 13 12 11 10 10 10 10 10 10 10 10 9 8
7 8 9 10 11 15 13 7 6 6 4 6 5 5 5 3 2 2 3 2 2 5 6 8 10 6 5 7 11 18 22 25 25 25 30 35 38 40 41 41 41 43 46 46 45 45 45 46 46 45 43 40 38 37 37 36 35 34 33 32 30 29 27 26 25 25 24 23 19 15 14 12 10 10 9 9 10 10 11 11 12 12 12 12 11 10
7 8 9 9 6 11 15 12 11 8 5 6 5 6 5 5 5 4 3 3 4 5 5 4 5 5 5 6 10 16 21 26 27 25 29 35 38 41 41 40 40 41 43 44 44 46 47 47 47 46 45 43 40 40 40 40 39 37 36 34 32 30 29 27 26 26 25 23 19 16 14 10 8 8 8 9 10 11 11 11 11 12 12 11 12 12
8 8 7 9 9 11 12 12 12 10 6 5 4 7 4 6 6 3 4 6 5 3 4 3 3 5 6 4 3 5 8 11 19 22 24 26 29 34 36 36 38 40 41 42 43 45 47 48 48 48 47 45 43 42 43 43 42 41 39 37 35 33 30 29 27 26 25 23 20 17 14 11 9 8 9 9 10 10 10 10 10 10 10 10 10 10
6 6 6 8 9 11 11 10 11 10 6 4 4 5 5 7 7 3 5 2 3 2 4 3 2 4 2 4 6 4 7 10 15 17 20 24 27 30 33 35 38 39 41 43 45 47 48 48 49 50 49 47 46 44 45 45 44 43 42 40 38 35 32 30 29 27 26 25 23 19 15 12 10 9 8 8 8 9 10 9 9 9 9 9 9 9
5 5 7 8 9 12 15 13 10 10 9 5 6 7 3 2 4 4 2 2 4 1 4 3 3 3 2 3 5 2 7 11 13 14 16 21 25 28 32 37 39 42 43 45 46 47 48 49 50 50 51 50 48 47 47 47 46 45 43 42 41 39 36 33 31 30 29 27 25 20 16 13 11 9 8 8 8 9 9 9 8 9 9 8 8 7
4 3 7 8 9 10 11 10 8 8 8 6 5 6 5 4 2 1 3 2 1 2 3 4 4 3 4 5 4 5 9 11 12 13 13 15 21 26 31 35 38 40 41 41 43 45 47 49 51 51 52 51 50 49 48 47 47 46 44 43 42 40 37 35 33 32 31 29 26 22 17 13 11 10 9 9 9 9 9 8 7 7 8 7 7 6
4 3 5 7 7 8 6 5 7 7 4 2 4 4 3 4 6 3 3 4 4 3 3 4 5 3 5 6 7 10 10 10 11 12 12 16 23 29 31 33 37 40 41 42 44 46 48 51 52 52 53 53 52 51 50 50 49 47 46 45 43 41 38 36 35 35 34 31 27 23 18 14 12 10 9 9 10 10 8 7 6 7 7 7 6 5
4 4 4 7 4 8 7 5 8 8 6 3 4 4 2 0 3 3 2 2 5 4 3 3 3 5 5 5 8 12 12 13 15 15 13 16 25 31 33 37 40 42 44 45 46 48 50 52 52 53 54 54 54 52 52 52 51 49 48 46 46 43 41 38 36 37 36 32 29 25 19 15 13 11 10 10 10 10 8 7 6 6 7 7 6 6
4 4 5 5 5 5 6 8 11 12 10 7 6 6 5 3 4 4 3 2 2 5 5 5 4 6 6 4 8 11 11 11 15 15 12 17 27 33 35 38 40 42 44 46 48 50 51 52 54 55 55 54 53 53 54 54 52 52 50 49 49 46 43 40 38 38 37 33 29 25 20 16 13 11 11 10 10 11 9 8 7 7 7 7 6 7
6 4 5 4 7 7 7 10 13 13 11 9 6 6 6 5 5 6 5 4 2 3 3 4 3 6 6 5 7 7 8 10 16 18 16 21 31 34 33 35 39 43 46 48 50 51 52 53 55 55 54 54 54 55 55 55 55 54 53 52 51 49 46 41 39 38 37 35 30 26 21 17 14 12 11 11 12 12 10 9 9 9 7 6 6 8
7 4 4 3 5 6 7 9 10 10 9 6 4 5 6 5 6 6 5 5 4 4 4 3 3 6 6 4 7 8 11 14 20 25 24 24 29 34 34 34 38 43 47 48 50 52 53 53 53 53 54 54 54 54 55 55 55 55 54 53 52 50 46 42 40 39 38 36 31 26 23 19 16 14 12 12 13 13 12 10 10 9 7 6 7 9
7 5 5 4 2 4 5 6 7 7 6 4 3 6 7 7 8 5 3 3 3 5 6 5 4 7 5 1 5 8 12 13 16 24 29 28 29 32 34 36 40 43 46 48 50 52 51 51 51 53 54 55 54 55 55 55 56 55 55 54 53 50 46 43 41 40 39 36 31 28 26 21 16 16 14 12 14 14 12 11 10 10 8 8 9 9
7 5 6 6 6 5 6 7 7 5 4 2 4 7 8 9 12 7 4 4 4 4 5 6 5 7 5 1 3 7 11 12 11 17 25 29 31 33 34 36 40 42 44 47 49 50 50 50 51 53 54 55 55 55 56 56 56 56 55 54 52 49 46 43 43 42 40 37 32 30 29 23 18 18 14 12 14 14 12 10 9 9 9 9 10 10
4 4 7 9 8 8 8 9 8 7 7 6 6 10 9 9 11 8 6 5 6 4 4 6 6 5 4 4 6 8 11 13 11 10 17 23 27 32 34 35 39 42 44 46 46 48 48 47 48 51 52 54 55 55 56 57 56 56 55 54 51 48 45 44 45 43 41 38 33 32 32 25 20 19 15 11 13 13 11 10 9 10 11 11 13 14
4 4 9 11 12 13 10 9 8 9 11 10 10 12 10 9 10 9 7 7 7 7 4 9 7 11 11 11 12 12 12 11 8 10 18 23 26 31 34 34 38 40 41 43 43 44 45 45 47 50 52 54 55 56 56 57 56 55 55 53 50 47 45 45 46 44 42 39 36 35 33 25 19 19 16 12 12 12 10 9 9 10 12 13 15 16
4 6 9 9 11 14 12 10 8 10 12 12 12 13 12 11 10 9 10 9 9 9 8 9 11 15 15 14 14 16 15 14 14 20 27 28 28 31 31 31 35 37 38 39 39 41 43 45 47 50 53 55 56 56 56 56 56 55 55 53 50 48 46 46 47 45 43 41 38 37 34 24 20 21 18 14 13 11 9 9 9 11 12 13 15 15
4 6 9 11 11 12 12 11 9 9 10 12 15 15 13 12 12 12 12 10 10 11 10 11 14 14 14 15 18 19 20 20 22 25 27 28 29 29 27 28 31 34 36 35 35 37 41 44 47 49 52 54 55 56 57 56 56 56 56 55 52 49 47 47 47 46 44 44 42 39 34 25 23 24 21 18 14 11 10 9 10 11 12 13 14 13
7 6 8 12 10 9 10 8 7 8 8 11 14 13 10 10 11 12 12 10 9 9 7 12 14 11 10 11 13 17 20 20 19 19 22 26 29 27 25 27 29 31 33 33 33 34 37 42 45 48 51 53 55 57 57 56 56 56 56 56 54 51 48 48 49 47 46 45 42 39 34 25 24 27 24 19 15 11 11 10 11 12 12 13 13 12
8 5 4 8 7 6 6 5 4 4 3 5 10 8 5 4 5 6 5 5 6 6 5 9 10 10 9 5 5 9 14 16 15 16 21 25 28 27 25 27 28 27 27 28 30 32 35 40 43 45 49 52 54 56 56 56 55 55 56 57 55 52 49 49 49 46 46 44 40 38 32 22 24 30 26 19 16 13 11 11 13 14 14 14 14 12
6 4 4 6 6 5 5 7 7 6 5 3 7 4 5 5 5 4 3 2 3 6 6 6 8 10 7 7 8 8 10 13 16 21 26 27 27 27 24 24 25 23 20 19 20 23 27 32 35 40 46 49 52 54 54 55 55 55 56 56 55 53 51 50 49 48 48 44 39 38 31 20 24 31 25 19 17 14 12 14 15 15 15 15 13 12
4 7 5 5 6 5 5 6 7 6 4 3 7 1 6 9 9 8 5 3 0 4 6 4 6 6 7 10 12 12 12 16 21 26 29 27 25 23 22 22 21 19 17 14 12 12 14 17 22 29 37 45 49 49 49 52 53 53 53 54 55 54 52 51 50 49 49 44 40 38 28 22 28 31 23 18 19 16 15 16 16 16 16 15 13 13
1 5 4 3 5 3 2 6 5 2 4 4 6 2 6 10 11 10 7 6 6 7 8 7 4 4 7 9 12 14 15 18 21 23 23 22 21 20 19 17 16 14 13 11 8 7 8 9 11 16 25 34 40 44 47 50 51 52 53 53 53 51 50 49 47 46 46 43 41 36 24 20 27 29 23 21 22 20 18 17 17 17 17 16 14 14
1 2 2 3 3 3 3 5 5 7 4 3 2 1 4 7 8 9 9 9 10 6 7 9 8 7 8 11 16 21 21 19 18 18 18 17 15 14 13 13 14 12 9 7 5 5 7 7 7 9 13 20 28 36 42 46 49 51 50 47 43 40 41 43 41 42 42 41 41 35 23 21 26 28 28 27 24 23 21 18 18 18 17 17 16 15
3 2 1 3 2 4 5 3 2 2 3 5 2 2 2 2 5 7 5 4 8 8 5 6 9 10 11 13 18 24 24 18 12 9 12 12 9 7 8 11 14 11 6 5 4 4 7 5 3 3 6 12 19 27 33 39 44 45 41 39 39 39 41 43 44 44 44 45 42 31 20 20 25 29 33 32 27 24 22 20 18 17 17 19 18 17
9 5 2 3 2 2 5 4 2 2 2 3 5 6 5 0 8 10 6 3 6 10 9 2 9 11 11 13 18 21 19 12 4 3 7 9 7 8 10 12 13 8 2 4 6 4 5 5 2 1 4 9 16 22 29 36 40 38 37 41 44 45 44 44 45 44 46 47 39 25 19 22 25 30 35 34 28 25 23 22 20 19 19 20 21 22
9 7 5 4 3 3 5 4 1 3 4 4 7 7 9 4 6 9 8 3 6 13 13 1 8 10 9 13 17 17 12 6 4 3 3 7 9 10 13 13 9 4 3 5 6 7 9 8 4 5 7 9 12 18 25 35 39 37 37 41 43 43 42 41 41 42 46 48 38 25 24 26 25 28 35 35 29 25 24 23 21 20 21 23 25 26
6 6 6 4 4 4 4 3 1 2 1 3 7 8 10 4 4 7 5 3 8 14 10 3 7 8 10 12 12 10 6 4 6 2 4 7 11 9 9 8 3 3 6 7 7 7 7 7 7 10 12 12 11 13 20 30 36 36 37 38 40 42 42 40 40 42 46 46 37 28 27 27 24 27 31 31 28 26 25 23 21 22 23 25 26 27
4 4 3 3 3 4 3 1 1 1 1 4 7 9 12 6 7 7 3 6 8 12 12 16 15 14 15 17 14 10 9 7 8 13 14 10 9 6 5 4 1 1 2 2 5 7 9 11 12 13 13 12 10 10 13 22 30 35 39 40 42 46 44 37 36 41 44 39 31 27 28 25 22 24 26 25 25 25 25 24 24 25 25 26 26 25
3 3 3 2 2 2 2 1 1 1 3 8 8 11 14 7 4 3 4 2 6 10 18 25 23 21 23 24 21 18 17 17 16 17 17 13 10 8 6 4 4 4 5 8 10 13 16 17 16 16 16 14 11 10 11 16 24 32 38 41 44 46 42 33 30 36 40 36 29 29 31 26 21 20 21 21 23 26 28 28 27 26 24 22 21 18
0 1 3 1 1 3 3 3 1 2 8 15 11 8 11 5 5 5 5 7 13 16 20 24 24 24 23 22 21 21 20 19 19 18 16 13 11 11 10 9 9 9 10 10 10 14 17 17 17 18 18 15 12 12 12 15 21 28 35 39 41 41 38 29 26 30 34 35 32 32 30 25 20 18 19 22 25 29 31 29 26 24 22 20 19 18
1 1 2 0 2 3 3 3 1 5 10 12 7 6 6 8 12 13 14 16 20 23 23 24 26 26 25 23 23 23 21 20 19 18 16 14 13 13 13 13 14 14 14 14 12 13 15 17 18 18 16 14 12 13 13 16 21 27 31 32 33 34 32 27 26 28 29 29 30 31 28 25 22 20 20 23 26 30 31 29 25 22 22 21 22 22
2 2 5 3 3 4 4 1 1 5 10 17 21 18 16 20 23 24 25 25 26 27 26 27 27 26 24 24 25 25 24 23 21 18 17 15 14 15 16 16 17 15 14 15 14 13 16 19 19 17 16 13 11 11 13 17 22 25 26 26 25 26 25 23 25 27 25 23 24 27 26 22 17 13 12 16 20 24 25 24 23 22 21 21 22 19
3 4 7 5 3 5 5 3 4 8 13 18 22 22 23 24 22 23 26 27 26 25 25 26 27 25 22 21 23 23 22 21 20 19 18 17 17 17 17 17 17 15 13 13 13 14 15 17 16 15 13 11 11 13 17 21 22 19 18 20 21 21 21 23 26 25 22 21 20 17 13 8 3 4 7 11 14 17 18 19 19 18 17 16 16 14
1 3 6 5 3 4 3 2 3 7 12 15 19 21 23 24 22 21 21 20 20 20 19 19 21 24 24 23 23 23 21 20 20 19 18 17 17 16 15 15 16 15 14 13 11 12 12 12 13 13 12 12 14 16 19 20 20 16 13 15 18 17 14 17 20 18 15 15 14 9 3 3 6 8 9 11 15 17 19 19 18 15 13 13 14 14
1 3 5 4 3 3 2 3 2 7 14 17 19 19 19 21 23 22 19 17 16 16 15 14 15 20 25 25 24 24 23 22 21 20 19 17 16 15 14 14 15 15 13 12 10 11 11 11 13 15 16 16 16 18 17 14 14 15 14 12 12 13 15 16 13 12 12 11 8 4 6 9 11 12 12 16 21 22 20 18 15 13 11 12 13 13
6 5 4 5 4 3 2 2 2 6 12 14 16 16 15 16 18 20 19 18 17 16 15 13 12 14 20 23 23 23 23 22 21 21 23 21 17 15 14 13 13 13 12 11 10 10 10 11 15 19 20 20 20 20 19 19 22 24 22 20 19 17 14 14 16 15 14 12 11 10 11 11 10 13 17 20 22 21 18 16 14 12 11 11 12 12
6 4 3 6 7 3 2 4 4 4 4 6 9 12 12 11 13 17 19 20 21 19 15 14 12 12 14 16 19 20 22 22 20 19 21 20 18 16 13 11 11 11 11 11 9 9 11 13 17 21 22 22 22 24 26 27 27 25 24 22 19 14 9 10 13 14 13 13 14 13 11 11 12 17 20 21 19 18 16 15 13 13 12 12 12 13
3 4 4 5 5 2 3 6 9 9 6 5 10 13 13 13 14 16 17 18 19 18 16 16 16 15 13 12 14 15 16 16 15 15 16 15 15 15 12 11 10 10 9 10 9 10 13 18 22 24 25 26 27 30 31 28 23 19 16 15 13 9 7 6 8 5 3 5 5 4 9 13 17 20 21 19 17 16 15 15 15 14 14 13 14 14
Wind_Direction
181 220 247 201 214 228 225 191 191 207 206 206 183 163 173 174 192 191 178 177 163 151 170 165 157 164 169 176 178 175 174 174 175 176 176 179 183 185 188 190 191 195 197 198 199 197 195 194 195 197 196 195 198 200 203 209 213 209 203 205 209 207 206 206 206 209 208 210 221 229 234 239 244 246 241 247 255 262 268 265 253 248 252 252 242 239
176 208 236 214 213 225 236 224 192 197 228 231 204 182 183 179 194 193 175 175 163 144 175 169 156 168 173 177 179 173 173 178 178 177 180 183 185 188 189 191 193 194 194 195 194 193 192 192 194 198 198 198 199 201 204 207 208 204 201 203 205 205 205 205 206 210 208 204 209 214 219 217 213 215 211 205 218 237 256 262 242 231 233 233 231 239
188 222 233 217 216 232 250 249 214 209 228 239 236 209 207 195 174 189 178 174 167 139 169 174 162 174 182 178 178 176 178 183 182 180 182 184 184 186 189 190 191 190 189 190 189 190 191 191 194 198 201 203 204 204 204 206 205 200 198 199 201 205 205 204 206 209 205 194 189 187 190 188 188 192 184 181 187 189 190 197 206 205 207 222 237 254
194 233 231 221 225 231 251 258 239 235 234 228 237 225 222 201 155 201 189 172 170 136 162 168 159 176 188 184 184 184 184 183 183 184 184 185 185 187 190 190 188 187 187 185 185 188 189 191 195 200 204 207 207 207 205 205 203 198 196 193 194 199 201 202 203 203 194 186 190 194 192 189 191 191 188 194 202 202 198 195 201 205 210 229 247 260
213 238 221 217 235 229 238 255 243 232 245 229 221 211 195 191 205 220 176 159 134 80 150 140 110 207 197 194 200 191 188 185 182 183 184 187 188 188 188 189 189 190 189 186 185 188 191 194 199 204 208 209 208 208 206 204 200 194 191 190 192 194 195 195 196 197 197 196 201 205 202 199 201 200 200 204 210 218 219 208 210 216 218 225 237 249
228 238 211 203 232 236 230 247 241 215 232 249 220 200 190 197 210 202 157 146 92 79 172 144 129 242 234 209 209 192 187 189 183 182 184 186 188 185 185 187 189 191 191 190 190 192 195 199 202 206 209 208 208 207 203 201 196 190 188 190 192 190 189 190 192 197 200 201 206 211 211 211 213 209 206 208 212 222 226 218 218 213 206 211 224 241
219 234 214 198 219 235 233 242 243 214 212 257 226 196 197 197 189 169 161 159 133 178 195 170 153 199 234 228 219 193 180 192 190 187 186 186 185 185 185 187 188 189 191 193 195 196 198 200 203 205 206 205 204 201 198 197 194 191 189 192 193 188 187 189 192 198 200 203 209 215 218 224 227 223 217 215 212 217 226 230 235 230 219 225 240 254
191 215 224 211 212 229 233 238 239 203 188 248 236 200 194 183 172 166 166 176 167 146 180 189 126 117 195 224 211 186 182 194 198 193 191 189 188 187 188 189 189 190 191 192 195 197 199 201 202 203 203 202 201 197 195 194 192 191 190 192 191 187 188 191 196 204 205 208 217 222 225 228 231 228 225 221 218 225 235 240 246 252 251 250 257 262
192 200 215 215 214 227 229 233 227 186 186 241 239 207 187 173 178 175 172 181 158 118 168 212 133 108 220 245 169 173 193 200 202 198 194 192 192 190 189 191 191 192 193 194 196 198 200 203 203 202 201 200 200 197 195 193 190 190 190 190 189 188 190 195 202 209 212 215 222 227 230 230 231 232 231 231 234 237 239 242 245 247 248 249 253 253
210 204 209 209 217 229 230 238 222 183 208 241 229 203 178 133 167 176 171 165 133 136 184 205 191 146 250 255 163 175 207 210 206 200 196 194 194 193 192 192 193 193 193 195 198 200 202 204 204 202 200 199 200 198 196 194 190 190 190 189 189 189 193 199 206 211 214 218 224 229 235 239 240 241 238 237 238 238 237 238 239 241 245 244 243 242
225 217 215 207 218 227 229 238 223 198 214 234 218 206 220 38 78 133 100 104 131 188 211 204 198 182 230 247 190 186 206 206 199 191 194 195 195 196 195 194 194 193 193 195 198 200 202 204 203 200 198 198 199 198 197 195 192 192 192 192 192 193 197 204 210 214 216 221 227 233 239 245 246 240 234 230 229 229 227 226 230 235 239 238 239 243
238 226 219 205 215 221 226 236 232 215 207 212 192 170 216 318 24 43 8 53 150 231 239 206 199 191 220 249 211 209 216 208 192 185 186 191 196 197 196 196 195 195 195 195 197 199 199 198 198 197 197 197 197 197 197 196 194 195 195 195 196 199 203 207 213 217 219 223 230 234 237 239 234 225 221 219 218 218 214 214 218 220 227 235 243 244
236 233 225 215 217 212 211 231 239 240 208 201 192 107 147 269 353 96 250 217 190 240 240 191 184 192 223 232 214 214 221 215 198 190 185 186 192 194 195 197 196 196 196 196 197 198 197 195 195 195 195 196 197 198 198 196 195 197 199 199 200 204 207 210 216 219 221 227 230 231 229 225 219 212 213 218 220 220 218 218 221 222 232 243 245 240
232 244 226 216 218 206 204 214 224 241 219 194 185 137 146 157 121 199 232 225 211 257 257 184 170 196 241 245 222 209 214 214 203 191 185 187 190 190 192 196 197 197 197 197 197 197 197 195 195 195 194 195 196 198 198 196 196 199 201 201 203 208 210 212 217 219 223 229 229 224 219 215 212 208 214 227 231 229 225 227 231 233 240 245 241 233
210 239 222 209 210 196 202 210 205 206 206 201 170 143 159 156 154 197 202 196 205 234 255 199 169 197 205 236 225 207 215 212 197 186 185 188 191 189 189 193 196 197 197 198 198 198 198 197 196 196 195 196 197 197 197 197 197 201 203 203 205 209 212 214 217 220 224 227 224 219 213 204 206 209 216 226 225 222 221 224 230 235 240 242 237 232
206 237 229 213 213 196 197 204 194 185 204 225 144 121 168 174 157 182 192 187 181 198 241 210 199 215 206 269 287 187 201 189 174 176 179 183 187 185 186 191 195 197 197 198 198 199 200 198 197 197 197 198 198 198 198 198 199 203 205 206 207 210 212 215 216 218 223 225 220 216 209 196 199 206 210 216 214 212 216 221 230 238 240 234 228 228
196 247 253 211 217 215 198 179 171 176 193 219 179 174 206 174 146 162 231 237 105 156 253 239 266 300 283 320 350 88 131 144 158 171 175 177 179 180 185 190 193 196 198 199 200 200 200 199 198 198 198 199 199 199 200 200 202 205 207 208 208 210 212 214 216 217 220 223 217 213 207 194 194 202 205 208 206 206 212 217 227 234 231 222 218 221
170 250 264 205 210 229 210 184 177 183 165 152 201 208 199 145 120 121 199 323 57 161 276 292 257 275 228 267 319 78 145 164 168 172 174 176 175 178 185 189 193 197 199 200 202 202 201 199 199 199 200 201 202 203 203 203 205 206 208 210 209 209 210 212 215 216 219 221 216 211 206 194 191 196 202 207 207 207 208 212 220 224 220 216 216 218
181 240 275 223 205 223 213 192 199 204 172 151 182 185 153 161 187 111 153 167 112 208 273 298 274 239 201 222 231 184 181 181 173 170 173 176 178 182 185 188 192 196 198 199 200 200 201 200 200 200 201 203 204 206 207 206 206 207 210 212 212 212 211 211 213 215 218 220 217 212 206 196 192 195 199 207 210 211 209 209 221 226 220 220 223 228
209 185 278 262 211 192 194 195 202 218 220 158 140 164 171 166 175 181 164 157 162 194 230 280 301 270 226 217 198 192 188 175 168 175 183 185 187 188 184 184 189 193 195 197 199 201 202 202 202 203 203 205 206 208 208 207 207 209 211 213 214 215 214 214 216 218 219 220 217 212 205 200 196 198 202 208 215 218 213 210 223 233 229 225 229 241
198 173 240 283 242 184 191 208 195 196 207 186 153 180 220 134 148 173 188 150 142 154 184 219 268 268 248 216 190 188 182 176 177 182 188 187 189 192 189 187 189 191 194 197 200 203 204 204 205 206 206 206 207 207 207 207 208 210 212 214 215 215 215 216 218 220 221 222 218 211 206 203 201 202 207 213 222 224 215 210 216 223 226 223 227 243
183 173 203 267 271 211 208 212 198 192 190 173 164 185 188 148 127 158 228 287 124 148 167 175 219 265 259 199 185 189 184 183 182 178 182 189 191 196 196 192 191 191 194 199 203 207 207 207 207 207 205 205 205 205 205 207 209 210 212 214 214 215 216 217 220 221 222 222 218 211 206 205 203 205 212 218 226 227 216 207 204 205 213 221 231 245
175 153 173 222 251 236 222 215 201 187 176 167 174 187 176 150 128 150 204 244 206 174 145 132 192 266 264 199 176 179 173 175 181 180 184 192 196 199 198 194 193 195 199 202 204 207 209 209 208 206 204 204 204 205 206 207 209 210 212 213 214 215 216 218 222 223 222 222 218 211 207 208 207 207 211 218 226 228 216 201 195 199 211 225 239 254
177 164 177 216 267 262 247 233 213 183 161 162 182 169 163 169 156 151 171 179 188 192 146 133 220 267 275 216 168 162 166 176 187 190 189 193 199 201 198 194 195 199 202 203 204 207 208 208 207 204 203 204 204 205 206 207 209 210 211 213 214 215 217 219 223 223 222 220 216 210 209 210 211 212 212 216 222 224 214 200 194 199 211 229 245 260
191 183 164 177 237 263 257 243 228 208 178 167 172 167 172 171 159 150 126 138 217 220 157 147 212 254 279 215 162 170 170 180 193 191 189 191 198 203 199 197 199 201 202 205 207 208 208 206 205 204 204 204 204 204 206 207 208 209 211 214 215 216 217 220 222 222 220 217 213 210 209 207 211 215 212 213 219 220 213 202 198 202 214 233 245 257
187 189 162 173 190 199 207 213 214 210 205 194 165 177 187 175 170 173 135 143 225 233 148 150 207 254 291 49 186 198 176 179 194 185 183 186 191 198 197 194 198 200 202 207 209 209 209 207 206 205 205 204 204 204 205 206 208 210 213 215 216 217 218 220 221 221 219 215 210 209 209 208 212 211 205 205 213 215 213 207 202 208 220 232 238 252
158 191 175 172 185 194 198 209 204 175 184 207 192 190 199 192 184 169 126 157 198 171 170 207 192 187 216 184 198 213 186 178 186 175 173 178 184 190 191 190 195 198 202 207 209 209 208 207 206 205 205 205 205 205 206 208 210 212 214 216 216 218 219 220 221 219 217 213 210 210 211 212 214 208 196 195 204 208 211 209 206 214 226 234 241 252
142 195 187 177 195 210 206 212 210 182 186 201 202 202 202 193 183 167 164 185 163 136 208 244 187 163 190 199 193 202 196 183 178 169 171 174 179 185 185 186 191 196 201 204 205 205 205 206 207 206 205 206 206 206 208 210 213 215 217 217 217 218 219 221 220 218 216 212 211 211 210 211 217 213 200 192 198 204 208 205 207 218 227 235 243 250
144 193 192 180 204 220 215 211 202 186 193 201 204 209 203 189 181 184 202 196 154 159 213 222 190 180 189 194 193 196 192 181 176 174 171 170 175 182 182 182 187 193 198 201 203 205 206 207 206 205 206 206 206 207 208 210 213 215 217 218 218 219 222 223 220 217 215 211 211 210 206 208 219 216 206 201 201 205 210 205 205 218 228 236 244 248
158 200 194 185 208 230 223 213 194 180 198 208 209 211 204 194 186 187 206 200 176 197 211 183 185 198 194 190 195 195 186 175 171 170 169 168 172 178 178 178 185 195 200 202 205 207 208 209 208 208 206 205 205 206 208 210 212 215 218 218 219 221 225 224 220 218 215 211 211 208 204 208 217 211 204 206 208 209 212 206 204 215 226 233 240 245
202 218 194 180 198 226 220 215 200 184 194 209 213 213 209 210 206 200 209 201 184 211 210 167 178 210 220 200 189 181 172 163 161 165 166 168 171 173 176 179 184 191 198 202 205 206 208 210 210 210 208 206 206 207 209 212 215 218 219 219 220 223 227 226 221 217 214 211 210 208 203 205 211 209 205 206 209 211 213 211 210 214 221 230 237 243
209 216 181 163 174 211 199 159 139 151 164 207 208 195 183 206 210 202 206 179 169 188 168 154 178 212 226 201 145 152 161 156 157 161 162 165 167 168 176 184 185 187 193 199 204 207 211 212 212 212 211 210 209 209 211 214 216 217 218 220 223 225 226 224 218 213 210 209 210 208 205 203 205 207 208 206 207 211 214 218 221 222 226 234 240 245
193 175 165 157 162 210 199 129 99 68 44 283 233 186 128 117 104 84 52 66 163 160 137 159 207 217 201 154 136 155 170 162 161 163 163 165 163 162 169 177 180 181 181 184 194 205 213 219 221 222 219 216 213 214 216 216 217 219 221 223 223 224 224 220 215 212 211 210 207 203 207 216 211 208 210 211 210 212 215 221 227 229 231 237 242 247
193 168 170 155 151 207 210 132 93 67 86 239 264 281 101 109 102 83 46 353 215 133 129 166 211 200 171 162 166 174 175 167 165 166 166 165 161 158 160 162 163 167 167 163 170 186 204 219 228 233 231 224 220 220 221 221 222 224 224 223 222 223 222 216 213 213 210 206 201 198 207 224 214 209 215 218 214 215 218 225 232 234 236 239 243 247
255 169 161 125 131 178 163 111 110 182 198 232 275 318 100 111 103 84 54 6 19 72 89 79 78 128 145 151 151 150 152 153 153 153 154 160 162 158 156 158 160 165 166 161 167 190 208 214 220 233 237 231 227 225 223 223 224 223 223 222 221 221 217 210 209 206 201 198 194 192 206 218 208 212 226 224 218 221 222 228 237 240 241 240 240 247
202 174 140 88 119 150 110 108 168 213 251 306 279 200 88 90 84 70 50 14 5 31 84 90 83 86 95 110 124 129 130 129 129 134 141 148 152 150 160 177 175 168 168 166 179 230 240 227 216 224 233 234 233 230 227 226 226 224 222 219 215 212 207 203 200 193 188 187 186 191 208 212 204 219 232 226 223 225 224 232 242 244 245 242 240 247
79 115 105 63 84 140 121 98 181 200 338 352 325 275 322 102 130 116 89 19 354 357 24 91 99 96 98 106 116 123 122 113 104 123 143 144 148 166 190 187 168 155 157 164 170 241 254 244 234 221 228 236 236 235 235 232 226 221 215 210 207 207 205 202 198 194 190 189 191 201 215 207 208 227 234 228 226 228 228 236 242 245 248 244 242 247
58 44 56 84 61 86 100 76 51 127 167 270 277 292 317 235 149 125 92 350 329 348 348 57 121 118 120 119 121 124 120 105 90 146 153 158 182 190 177 164 153 146 173 185 177 200 214 204 181 185 237 241 238 240 239 232 223 214 210 210 210 209 206 202 202 204 201 198 201 210 206 201 216 232 232 229 230 233 234 238 244 250 251 247 248 250
57 39 34 70 61 56 89 96 118 160 180 247 264 294 325 300 167 110 65 337 304 337 336 312 131 120 126 133 136 132 115 115 195 216 159 169 175 165 160 155 148 161 220 208 194 190 188 193 225 272 270 255 246 246 241 231 222 215 212 213 209 204 202 202 207 212 207 203 208 212 199 202 217 224 225 230 235 237 237 241 249 255 252 251 251 250
49 44 29 40 43 46 84 107 184 171 160 275 262 297 331 336 133 92 68 257 300 333 343 72 103 96 110 122 129 123 101 146 182 94 67 157 164 153 158 158 146 196 192 180 186 196 205 227 260 277 282 276 264 254 244 234 225 217 214 213 208 204 205 209 217 219 212 211 220 219 207 212 220 214 217 228 236 239 241 244 253 257 255 254 252 251
34 47 55 90 65 32 65 98 273 230 344 289 278 321 347 22 80 80 154 225 312 352 46 71 66 67 81 87 86 77 69 86 92 65 64 100 126 121 137 137 74 281 221 234 258 269 281 281 277 275 275 272 268 261 250 239 230 223 219 217 214 213 214 217 224 222 218 223 232 220 207 214 219 210 214 227 237 243 244 245 253 257 254 252 252 253
19 20 27 90 101 60 90 93 287 261 325 307 309 1 22 49 97 107 177 214 348 27 62 66 63 63 66 71 74 72 67 64 58 51 51 61 71 67 65 56 21 349 333 311 289 285 285 279 276 273 261 252 254 262 262 249 238 229 223 221 222 221 218 222 231 229 229 238 235 213 207 218 222 216 222 235 244 246 243 245 251 251 247 248 248 241
91 48 20 20 101 94 72 37 60 222 307 315 316 3 28 61 159 156 121 72 47 50 56 55 55 54 52 58 62 59 54 48 40 33 30 28 25 20 12 1 348 343 343 331 303 290 282 272 269 266 256 247 248 254 258 253 242 232 226 227 230 227 222 228 239 238 239 240 227 211 212 222 226 226 235 244 247 244 242 243 245 241 237 238 238 239
2 82 118 14 18 75 75 36 158 241 309 352 49 88 57 80 106 102 91 74 59 56 54 49 47 45 45 50 49 43 39 34 26 20 19 18 13 5 358 352 345 339 339 338 322 299 281 270 264 257 245 243 248 249 249 248 240 232 229 232 236 232 229 236 240 235 234 232 222 215 216 221 225 234 246 252 250 245 241 241 240 236 235 241 250 264
257 177 134 104 41 89 124 120 315 310 358 43 75 90 84 85 87 81 77 72 64 60 57 52 47 42 41 43 40 36 33 29 24 19 15 12 6 1 357 354 350 344 340 338 325 296 269 257 255 251 243 244 249 244 239 236 232 229 231 235 236 231 226 227 226 223 223 223 221 219 218 219 225 241 266 274 265 254 247 243 241 242 246 255 265 272
223 166 128 109 95 104 102 65 24 22 30 49 69 77 78 79 77 72 71 70 68 65 59 51 46 39 35 37 35 30 24 19 18 16 8 3 3 0 354 346 342 340 336 329 316 293 266 244 241 248 244 229 217 215 216 215 213 216 227 234 235 233 229 223 218 214 212 211 209 205 202 205 237 299 294 277 260 251 247 244 244 248 252 259 263 257
265 101 92 83 96 112 100 349 5 48 48 51 62 68 70 71 69 66 65 65 66 68 63 52 39 31 31 33 31 25 17 9 6 4 360 1 2 357 348 339 334 331 325 318 306 292 272 248 240 238 220 199 196 201 203 205 206 208 214 223 229 230 221 205 196 184 173 177 180 170 138 26 357 336 301 261 244 243 244 244 248 254 256 256 255 251
177 103 104 93 80 110 153 264 309 73 67 59 59 61 64 69 69 66 64 61 57 57 57 51 35 25 24 21 15 13 11 6 1 354 347 350 352 345 339 335 329 323 316 308 296 285 277 259 237 216 196 189 192 191 187 179 171 167 156 142 145 143 123 109 107 106 104 109 115 86 17 357 343 323 291 256 244 243 244 243 247 253 255 255 254 255
132 125 126 111 82 64 78 273 308 61 59 54 58 59 58 63 66 64 61 57 50 44 39 38 32 24 20 13 5 2 359 354 349 340 332 332 336 337 335 328 319 311 302 292 281 275 273 255 226 205 192 189 190 184 171 150 144 153 154 141 137 138 115 67 39 45 59 53 38 23 4 343 311 280 260 246 240 240 240 241 243 246 248 250 252 259
111 128 129 126 135 149 181 194 172 117 71 43 56 62 58 59 66 66 60 53 47 39 29 21 17 17 18 10 360 354 349 343 341 336 327 321 320 322 322 315 307 300 293 286 277 266 254 234 216 201 187 179 176 174 167 157 153 157 159 157 157 148 109 44 21 36 45 24 9 2 342 309 270 252 246 240 237 237 237 236 235 235 238 245 253 264
63 111 95 101 118 152 205 167 132 118 117 80 68 72 69 61 63 65 59 52 47 39 30 25 22 21 18 2 347 346 346 342 340 336 329 320 311 306 302 296 291 287 282 275 266 250 226 205 200 196 181 168 165 164 161 155 149 146 150 167 179 157 99 20 339 331 302 304 316 295 268 255 241 235 234 232 232 235 236 234 232 234 240 252 263 271